Flag for Austria Weather past 2 weeks in Judenburg, Styria, Austria

Now
41 °F

Partly sunny.


Feels Like: 34 °F
Forecast: 25 / 37 °F
Wind: 12 mph from Northeast

Location: Zeltweg

Current Time: Mar 5, 2015 at 3:42:44 PM

Latest Report: Mar 5, 2015 at 2:50 PM


Visibility: 25 mi

Pressure: 30.39 "Hg

Humidity: 36%

Dew point: 16 °F

Location of JudenburgLocation

Historic Weather in Judenburg — Graph

°F

Judenburg temperature yesterday

Maximum temperature yesterday: 46 °F (at 1:20 PM)
Minimum temperature yesterday: 21 °F (at 5:50 AM)
Average temperature yesterday: 37 °F

Past Weeks' High & Low Weather Summary

 TemperatureHumidityPressure
High50 °F (Mar 2, 1:20 PM)100% (Feb 19, 4:50 AM)30.60 "Hg (Feb 19, 4:50 AM)
Low16 °F (Feb 19, 4:50 AM)23% (Mar 3, 4:20 PM)29.56 "Hg (Feb 23, 1:50 PM)
Average37 °F68%29.97 "Hg
* Reported Feb 18 2:20 PM — Mar 5 2:20 PM, Judenburg, Weather by CustomWeather, © 2015

Note: Actual official high and low records may vary slightly from our data, if they occured in-between our weather recording intervals... More about our weather records

Advertising

Judenburg weather history for previous 24 hours

 ConditionsComfort  
Time TempWeatherWind HumidityBarometerVisibility
2:20 PM
Thu, Mar 5
39 °FPartly sunny.9 mph39%30.27 "Hg25 mi
1:50 PM41 °FScattered clouds.18 mph42%30.27 "Hg25 mi
1:20 PM41 °FScattered clouds.16 mph39%30.27 "Hg25 mi
12:50 PM39 °FPartly sunny.15 mph45%30.30 "Hg25 mi
12:20 PM39 °FScattered clouds.13 mph39%30.30 "Hg25 mi
11:50 AM41 °FPartly sunny.13 mph45%30.30 "Hg25 mi
11:20 AM41 °FPartly sunny.13 mph42%30.30 "Hg25 mi
10:50 AM39 °FScattered clouds.12 mph45%30.30 "Hg25 mi
10:20 AM39 °FScattered clouds.10 mph42%30.30 "Hg25 mi
9:50 AM37 °FPartly sunny.10 mph52%30.30 "Hg19 mi
9:20 AM36 °FScattered clouds.9 mph56%30.30 "Hg25 mi
8:50 AM37 °FScattered clouds.9 mph56%30.30 "Hg25 mi
8:20 AM36 °FScattered clouds.3 mph56%30.30 "Hg19 mi
7:50 AM34 °FBroken clouds.3 mph60%30.30 "Hg19 mi
7:20 AM32 °FBroken clouds.2 mph69%30.01 "Hg19 mi
6:50 AM34 °FSnow flurries. Broken clouds.2 mph60%30.30 "Hg19 mi
5:50 AM34 °FPartly cloudy.8 mph60%30.27 "Hg19 mi
4:50 AM36 °FOvercast.7 mph56%30.27 "Hg19 mi
9:50 PM
Wed, Mar 4
34 °FOvercast.1 mph65%30.24 "Hg19 mi
7:50 PM37 °FOvercast.8 mph56%30.21 "Hg19 mi
6:50 PM37 °FOvercast.5 mph48%30.21 "Hg19 mi
5:50 PM39 °FOvercast.3 mph42%30.21 "Hg25 mi
4:50 PM41 °FPartly sunny.6 mph39%30.18 "Hg31 mi
4:20 PM43 °FBroken clouds.8 mph36%30.15 "Hg31 mi
3:50 PM43 °FBroken clouds.9 mph36%30.15 "Hg31 mi
3:20 PM43 °FBroken clouds.14 mph36%30.15 "Hg31 mi
Weather by CustomWeather, © 2015

See weather overviewHow to use our weather pages